SV4JYD-14 Weather Reports


Display with metric or nautical units.
time (UTC)temp
F
wind
direction
speed
MPH
gust
MPH
rain 1hr
in
rain 24hr
in
rain mn
in
humidity
%
barometer
mb
20260906091844 85 320 12.0 0.0 0.00 0.00 0.00 42 1017.0
20260906090343 84 320 11.0 0.0 0.00 0.00 0.00 43 1016.0
20260906084843 86 320 11.0 0.0 0.00 0.00 0.00 37 1016.0
20260906083343 84 320 11.0 0.0 0.00 0.00 0.00 41 1016.0
20260906081843 83 340 11.0 0.0 0.00 0.00 0.00 44 1017.0
20260906080342 83 340 11.0 0.0 0.00 0.00 0.00 43 1017.0
20260906074842 83 313 5.0 9.0 0.00 0.00 0.00 42 1016.0
20260906073342 80 350 4.0 0.0 0.00 0.00 0.00 48 1016.0
20260906071841 78 360 4.0 0.0 0.00 0.00 0.00 55 1017.0
20260906070341 78 0 3.0 0.0 0.00 0.00 0.00 55 1016.0
20260906064841 77 0 3.0 0.0 0.00 0.00 0.00 61 1016.0
20260906063341 77 0 3.0 0.0 0.00 0.00 0.00 59 1016.0
20260906061840 78 0 3.0 0.0 0.00 0.00 0.00 57 1016.0
20260906060340 78 0 3.0 0.0 0.00 0.00 0.00 58 1016.0
20260906054840 78 320 5.0 0.0 0.00 0.00 0.00 57 1016.0
20260906053340 77 320 5.0 0.0 0.00 0.00 0.00 58 1016.0
20260906051839 76 0 2.0 0.0 0.00 0.00 0.00 61 1016.0
20260906050339 75 0 2.0 0.0 0.00 0.00 0.00 62 1016.0
20260906044839 73 0 3.0 0.0 0.00 0.00 0.00 56 1016.0
20260906043338 72 0 3.0 0.0 0.00 0.00 0.00 45 1016.0
20260906041838 72 0 2.0 0.0 0.00 0.00 0.00 45 1016.0
20260906040338 72 0 2.0 0.0 0.00 0.00 0.00 46 1015.0
20260906034838 72 0 2.0 0.0 0.00 0.00 0.00 46 1015.0
20260906033337 73 0 2.0 0.0 0.00 0.00 0.00 46 1015.0
20260906031837 73 310 4.0 0.0 0.00 0.00 0.00 46 1015.0
20260906030337 73 343 8.0 11.0 0.00 0.00 0.00 44 1015.0
20260906024837 73 300 4.0 0.0 0.00 0.00 0.00 46 1015.0
20260906023336 74 300 4.0 0.0 0.00 0.00 0.00 45 1015.0
20260906021836 75 300 4.0 0.0 0.00 0.00 0.00 44 1016.0
20260906020336 75 300 4.0 0.0 0.00 0.00 0.00 43 1016.0
20260906014835 75 320 4.0 0.0 0.00 0.00 0.00 42 1015.0
20260906013337 75 320 4.0 0.0 0.00 0.00 0.00 42 1015.0
20260906011835 75 320 4.0 0.0 0.00 0.00 0.00 42 1016.0
20260906004834 76 310 4.0 0.0 0.00 0.00 0.00 43 1015.0
20260906003334 76 310 4.0 0.0 0.00 0.00 0.00 43 1015.0
20260906001834 76 310 4.0 0.0 0.00 0.00 0.00 43 1016.0
20260906000334 76 4 1.0 1.0 0.00 0.00 0.00 43 1015.0
20260905234834 76 355 1.0 2.0 0.00 0.00 0.00 43 1015.0
20260905233333 76 360 1.0 5.0 0.00 0.00 0.00 43 1015.0
20260905231833 76 343 10.0 12.0 0.00 0.00 0.00 42 1015.0
20260905230333 77 343 10.0 12.0 0.00 0.00 0.00 42 1016.0
20260905224832 78 0 2.0 0.0 0.00 0.00 0.00 42 1015.0
20260905223332 78 357 1.0 4.0 0.00 0.00 0.00 39 1015.0
20260905221832 79 360 2.0 8.0 0.00 0.00 0.00 37 1015.0
20260905220332 79 360 4.0 8.0 0.00 0.00 0.00 35 1016.0
20260905214831 79 310 4.0 0.0 0.00 0.00 0.00 35 1015.0
20260905213331 79 310 4.0 0.0 0.00 0.00 0.00 36 1015.0
20260905211831 78 310 4.0 0.0 0.00 0.00 0.00 41 1016.0
20260905210330 79 280 6.0 0.0 0.00 0.00 0.00 43 1015.0
20260905204830 80 280 6.0 0.0 0.00 0.00 0.00 44 1015.0
20260905203330 80 280 6.0 0.0 0.00 0.00 0.00 38 1015.0
20260905201830 80 280 6.0 0.0 0.00 0.00 0.00 39 1015.0
20260905200329 80 280 6.0 0.0 0.00 0.00 0.00 44 1015.0
20260905194829 81 290 9.0 0.0 0.00 0.00 0.00 39 1015.0
20260905193329 81 290 9.0 0.0 0.00 0.00 0.00 39 1015.0
20260905191829 81 290 9.0 0.0 0.00 0.00 0.00 39 1015.0
20260905190328 81 290 9.0 0.0 0.00 0.00 0.00 42 1015.0
20260905184828 81 290 9.0 0.0 0.00 0.00 0.00 42 1015.0
20260905183328 81 290 9.0 0.0 0.00 0.00 0.00 42 1015.0
20260905181828 81 310 6.0 0.0 0.00 0.00 0.00 44 1015.0
20260905180327 83 310 6.0 0.0 0.00 0.00 0.00 33 1015.0
20260905174827 83 300 9.0 0.0 0.00 0.00 0.00 36 1014.0
20260905173327 84 300 9.0 0.0 0.00 0.00 0.00 35 1014.0
20260905171827 84 300 6.0 0.0 0.00 0.00 0.00 33 1014.0
20260905170326 81 300 6.0 0.0 0.00 0.00 0.00 42 1014.0
20260905164821 83 310 9.0 0.0 0.00 0.00 0.00 37 1014.0
20260905163321 86 310 9.0 0.0 0.00 0.00 0.00 38 1014.0
20260905161821 87 310 9.0 0.0 0.00 0.00 0.00 37 1014.0
20260905160320 88 310 11.0 0.0 0.00 0.00 0.00 37 1013.0
20260905154820 88 310 11.0 0.0 0.00 0.00 0.00 38 1013.0
20260905153320 86 320 12.0 0.0 0.00 0.00 0.00 42 1013.0
20260905151820 88 320 12.0 0.0 0.00 0.00 0.00 46 1014.0
20260905150319 90 320 12.0 0.0 0.00 0.00 0.00 38 1014.0
20260905144814 90 320 13.0 0.0 0.00 0.00 0.00 36 1013.0
20260905143314 90 320 13.0 0.0 0.00 0.00 0.00 33 1013.0
20260905141814 89 320 13.0 0.0 0.00 0.00 0.00 32 1014.0
20260905140313 90 320 13.0 0.0 0.00 0.00 0.00 29 1014.0
20260905134813 89 320 13.0 0.0 0.00 0.00 0.00 30 1013.0
20260905133313 89 320 13.0 0.0 0.00 0.00 0.00 30 1013.0
20260905131813 89 320 13.0 0.0 0.00 0.00 0.00 30 1014.0
20260905130312 89 320 13.0 0.0 0.00 0.00 0.00 32 1014.0
20260905124812 90 320 13.0 0.0 0.00 0.00 0.00 28 1014.0
20260905123312 90 320 13.0 0.0 0.00 0.00 0.00 28 1014.0
20260905121812 88 310 12.0 0.0 0.00 0.00 0.00 35 1015.0
20260905120311 87 320 13.0 0.0 0.00 0.00 0.00 36 1014.0
20260905114811 89 320 13.0 0.0 0.00 0.00 0.00 33 1014.0
20260905113311 89 320 13.0 0.0 0.00 0.00 0.00 35 1014.0
20260905111811 86 320 14.0 0.0 0.00 0.00 0.00 40 1015.0
20260905110310 87 320 14.0 0.0 0.00 0.00 0.00 37 1015.0
20260905104810 86 320 14.0 0.0 0.00 0.00 0.00 39 1015.0
20260905103310 86 320 14.0 0.0 0.00 0.00 0.00 42 1015.0
20260905101810 85 320 11.0 0.0 0.00 0.00 0.00 44 1016.0
20260905100309 85 320 10.0 0.0 0.00 0.00 0.00 45 1015.0
20260905094809 85 320 10.0 0.0 0.00 0.00 0.00 45 1015.0
20260905093309 84 320 10.0 0.0 0.00 0.00 0.00 45 1015.0